• In Romania
  • List of Countries
  • For 7 days
  • Water Temperature
  • Satellite Maps
  • Weather Map
  • Weather Widgets
  • user-avatar
    Login

    Hourly Weather Batina

    Today, 20 September, Wednesday

    Time Temperature Precipitation Wind Pressure Humidity
    00:00 +18°C° 0 mm 2 mps 674 mmHg 54%
    01:00 +17°C° 0 mm 2 mps 673 mmHg 56%
    02:00 +18°C° 0 mm 1 mps 673 mmHg 59%
    03:00 +16°C° 0 mm 1 mps 673 mmHg 61%
    04:00 +16°C° 0 mm 1 mps 673 mmHg 62%
    05:00 +16°C° 0 mm 1 mps 673 mmHg 62%
    06:00 +16°C° 0 mm 1 mps 674 mmHg 63%
    07:00 +18°C° 0 mm 1 mps 674 mmHg 58%
    08:00 +18°C° 0 mm 2 mps 675 mmHg 54%
    09:00 +19°C° 0 mm 2 mps 675 mmHg 49%
    10:00 +20°C° 0 mm 2 mps 675 mmHg 45%
    11:00 +21°C° 0 mm 2 mps 676 mmHg 42%
    12:00 +22°C° 0 mm 3 mps 676 mmHg 38%
    13:00 +22°C° 0 mm 3 mps 675 mmHg 37%
    14:00 +22°C° 0 mm 3 mps 675 mmHg 36%
    15:00 +24°C° 0 mm 3 mps 675 mmHg 34%
    16:00 +22°C° 0 mm 3 mps 675 mmHg 37%
    17:00 +22°C° 0 mm 3 mps 675 mmHg 39%
    18:00 +21°C° 0 mm 2 mps 675 mmHg 41%
    19:00 +21°C° 0 mm 2 mps 675 mmHg 45%
    20:00 +20°C° 0 mm 2 mps 675 mmHg 48%
    21:00 +20°C° 0 mm 1 mps 675 mmHg 52%
    22:00 +20°C° 0 mm 1 mps 675 mmHg 54%
    23:00 +19°C° 0 mm 1 mps 674 mmHg 55%

    Tomorrow, 21 September, Thursday

    Time Temperature Precipitation Wind Pressure Humidity
    00:00 +19°C° 0 mm 1 mps 674 mmHg 57%
    01:00 +19°C° 0 mm 1 mps 674 mmHg 58%
    02:00 +19°C° 0 mm 1 mps 674 mmHg 58%
    03:00 +18°C° 0 mm 1 mps 674 mmHg 59%
    04:00 +17°C° 0 mm 2 mps 674 mmHg 59%
    05:00 +17°C° 0 mm 2 mps 674 mmHg 59%
    06:00 +17°C° 0 mm 2 mps 674 mmHg 59%
    07:00 +18°C° 0 mm 3 mps 674 mmHg 54%
    08:00 +20°C° 0 mm 3 mps 675 mmHg 48%
    09:00 +21°C° 0 mm 4 mps 675 mmHg 43%
    10:00 +22°C° 0 mm 4 mps 675 mmHg 39%
    11:00 +23°C° 0 mm 4 mps 675 mmHg 36%
    12:00 +25°C° 0 mm 3 mps 675 mmHg 33%
    13:00 +25°C° 0 mm 3 mps 675 mmHg 33%
    14:00 +26°C° 0 mm 3 mps 674 mmHg 32%
    15:00 +26°C° 0 mm 3 mps 674 mmHg 31%
    16:00 +25°C° 0 mm 3 mps 674 mmHg 33%
    17:00 +24°C° 0 mm 2 mps 674 mmHg 35%
    18:00 +24°C° 0 mm 2 mps 674 mmHg 38%
    19:00 +23°C° 0 mm 2 mps 674 mmHg 40%
    20:00 +23°C° 0 mm 1 mps 674 mmHg 43%
    21:00 +22°C° 0 mm 1 mps 674 mmHg 46%
    22:00 +21°C° 0 mm 1 mps 674 mmHg 47%
    23:00 +21°C° 0 mm 1 mps 674 mmHg 49%

    Day after tomorrow, 22 September, Friday

    Time Temperature Precipitation Wind Pressure Humidity
    00:00 +21°C° 0 mm 1 mps 673 mmHg 50%
    01:00 +20°C° 0 mm 1 mps 673 mmHg 51%
    02:00 +20°C° 0 mm 1 mps 673 mmHg 52%
    03:00 +19°C° 0 mm 2 mps 673 mmHg 53%
    04:00 +18°C° 0 mm 2 mps 673 mmHg 54%
    05:00 +18°C° 0 mm 2 mps 673 mmHg 54%
    06:00 +18°C° 0 mm 2 mps 673 mmHg 54%
    07:00 +20°C° 0 mm 2 mps 674 mmHg 47%
    08:00 +23°C° 0 mm 2 mps 674 mmHg 40%
    09:00 +24°C° 0 mm 2 mps 675 mmHg 34%
    10:00 +25°C° 0 mm 2 mps 675 mmHg 31%
    11:00 +26°C° 0 mm 2 mps 675 mmHg 29%
    12:00 +27°C° 0 mm 3 mps 675 mmHg 26%
    13:00 +28°C° 0 mm 3 mps 675 mmHg 26%
    14:00 +28°C° 0 mm 3 mps 675 mmHg 26%
    15:00 +28°C° 0 mm 3 mps 675 mmHg 25%
    16:00 +28°C° 0 mm 2 mps 674 mmHg 27%
    17:00 +27°C° 0 mm 2 mps 674 mmHg 29%
    18:00 +26°C° 0 mm 2 mps 674 mmHg 32%
    19:00 +25°C° 0 mm 2 mps 675 mmHg 35%
    20:00 +25°C° 0 mm 1 mps 675 mmHg 37%
    21:00 +24°C° 0 mm 1 mps 675 mmHg 40%
    22:00 +23°C° 0 mm 1 mps 675 mmHg 42%
    23:00 +23°C° 0 mm 1 mps 675 mmHg 43%

    23 September, Saturday

    Time Temperature Precipitation Wind Pressure Humidity
    00:00 +23°C° 0 mm 1 mps 675 mmHg 45%
    01:00 +22°C° 0 mm 1 mps 674 mmHg 46%
    02:00 +22°C° 0 mm 1 mps 674 mmHg 47%
    03:00 +21°C° 0 mm 1 mps 674 mmHg 48%
    04:00 +21°C° 0 mm 1 mps 674 mmHg 48%
    05:00 +21°C° 0 mm 1 mps 674 mmHg 48%
    06:00 +21°C° 0 mm 1 mps 674 mmHg 48%
    07:00 +23°C° 0 mm 1 mps 675 mmHg 43%
    08:00 +24°C° 0 mm 2 mps 675 mmHg 39%
    09:00 +26°C° 0 mm 2 mps 676 mmHg 35%
    10:00 +26°C° 0 mm 3 mps 676 mmHg 32%
    11:00 +27°C° 0 mm 4 mps 676 mmHg 30%
    12:00 +28°C° 0 mm 4 mps 676 mmHg 27%
    13:00 +28°C° 0 mm 4 mps 676 mmHg 27%
    14:00 +28°C° 0 mm 5 mps 675 mmHg 26%
    15:00 +28°C° 0 mm 5 mps 675 mmHg 26%
    16:00 +28°C° 0 mm 4 mps 675 mmHg 28%
    17:00 +27°C° 0 mm 4 mps 675 mmHg 30%
    18:00 +26°C° 0 mm 3 mps 675 mmHg 32%
    19:00 +25°C° 0 mm 2 mps 675 mmHg 34%
    20:00 +24°C° 0 mm 2 mps 675 mmHg 37%
    21:00 +24°C° 0 mm 2 mps 674 mmHg 39%
    22:00 +23°C° 0.1 mm 2 mps 674 mmHg 40%
    23:00 +23°C° 0.1 mm 2 mps 674 mmHg 41%

    24 September, Sunday

    Time Temperature Precipitation Wind Pressure Humidity
    00:00 +21°C° 0.1 mm 2 mps 673 mmHg 43%
    01:00 +21°C° 0.1 mm 2 mps 673 mmHg 44%
    02:00 +21°C° 0.1 mm 2 mps 673 mmHg 44%
    03:00 +20°C° 0.1 mm 2 mps 673 mmHg 45%
    04:00 +20°C° 0.2 mm 2 mps 673 mmHg 46%
    05:00 +20°C° 0.2 mm 3 mps 673 mmHg 47%
    06:00 +20°C° 0.2 mm 3 mps 673 mmHg 48%
    07:00 +21°C° 0.3 mm 3 mps 674 mmHg 46%
    08:00 +22°C° 0.3 mm 3 mps 674 mmHg 44%
    09:00 +24°C° 0.3 mm 3 mps 675 mmHg 41%
    10:00 +25°C° 0 mm 4 mps 675 mmHg 39%
    11:00 +26°C° 0 mm 4 mps 675 mmHg 36%
    12:00 +27°C° 0 mm 4 mps 675 mmHg 34%
    13:00 +26°C° 0.1 mm 5 mps 675 mmHg 35%
    14:00 +26°C° 0.1 mm 6 mps 674 mmHg 36%
    15:00 +26°C° 0.1 mm 7 mps 674 mmHg 37%
    16:00 +24°C° 0.1 mm 7 mps 674 mmHg 43%
    17:00 +22°C° 0.1 mm 6 mps 674 mmHg 49%
    18:00 +21°C° 0.1 mm 5 mps 674 mmHg 55%
    19:00 +20°C° 0 mm 5 mps 674 mmHg 57%
    20:00 +20°C° 0 mm 4 mps 674 mmHg 58%
    21:00 +19°C° 0 mm 3 mps 675 mmHg 59%
    22:00 +19°C° 0 mm 3 mps 674 mmHg 61%
    23:00 +18°C° 0 mm 3 mps 674 mmHg 62%

    25 September, Monday

    Time Temperature Precipitation Wind Pressure Humidity
    00:00 +18°C° 0 mm 2 mps 674 mmHg 64%
    01:00 +17°C° 0 mm 2 mps 674 mmHg 66%
    02:00 +17°C° 0 mm 2 mps 674 mmHg 69%
    03:00 +16°C° 0 mm 2 mps 673 mmHg 71%
    04:00 +16°C° 0 mm 2 mps 673 mmHg 72%
    05:00 +16°C° 0 mm 2 mps 673 mmHg 73%
    06:00 +16°C° 0 mm 2 mps 673 mmHg 74%
    07:00 +17°C° 0 mm 2 mps 674 mmHg 64%
    08:00 +18°C° 0 mm 2 mps 674 mmHg 54%
    09:00 +21°C° 0 mm 1 mps 675 mmHg 44%
    10:00 +22°C° 0 mm 1 mps 675 mmHg 38%
    11:00 +23°C° 0 mm 1 mps 675 mmHg 33%
    12:00 +24°C° 0 mm 2 mps 675 mmHg 27%
    13:00 +25°C° 0 mm 2 mps 675 mmHg 26%
    14:00 +25°C° 0 mm 2 mps 674 mmHg 25%
    15:00 +25°C° 0 mm 2 mps 674 mmHg 23%
    16:00 +25°C° 0 mm 3 mps 674 mmHg 25%
    17:00 +24°C° 0 mm 3 mps 674 mmHg 27%
    18:00 +22°C° 0 mm 3 mps 674 mmHg 29%
    19:00 +23°C° 0 mm 2 mps 674 mmHg 34%
    20:00 +21°C° 0 mm 2 mps 674 mmHg 39%
    21:00 +20°C° 0 mm 2 mps 674 mmHg 43%
    22:00 +20°C° 0 mm 1 mps 673 mmHg 47%
    23:00 +20°C° 0 mm 1 mps 673 mmHg 50%
    Show more